Time,TemperatureF,DewpointF,PressureIn,WindDirection,WindDirectionDegrees,WindSpeedMPH,WindSpeedGustMPH,Humidity,HourlyPrecipIn,Conditions,Clouds,dailyrainin,SoftwareType,DateUTC
2013-03-06 00:00:00,48.0,44.0,-100.00,South,189,23.0,-999.0,85,0.00,,,-99.99,,2013-03-06 08:00:00,
2013-03-06 00:21:00,48.0,44.0,-100.00,South,189,23.0,-999.0,85,0.00,,,-99.99,,2013-03-06 08:21:00,
2013-03-06 00:32:00,48.0,44.0,-100.00,South,189,23.0,-999.0,85,0.00,,,-99.99,,2013-03-06 08:32:00,
2013-03-06 00:42:00,48.0,44.0,-100.00,South,189,23.0,-999.0,85,0.00,,,-99.99,,2013-03-06 08:42:00,
2013-03-06 00:52:00,48.0,44.0,-100.00,South,189,23.0,-999.0,85,0.00,,,-99.99,,2013-03-06 08:52:00,
2013-03-06 01:00:00,47.0,44.0,-100.00,South,189,10.0,-999.0,88,0.00,,,-99.99,,2013-03-06 09:00:00,
2013-03-06 01:22:00,47.0,44.0,-100.00,South,189,10.0,-999.0,88,0.00,,,-99.99,,2013-03-06 09:22:00,
2013-03-06 01:32:00,47.0,44.0,-100.00,South,189,10.0,-999.0,88,0.00,,,-99.99,,2013-03-06 09:32:00,
2013-03-06 01:42:00,47.0,44.0,-100.00,South,189,10.0,-999.0,88,0.00,,,-99.99,,2013-03-06 09:42:00,
2013-03-06 01:52:00,47.0,44.0,-100.00,South,189,10.0,-999.0,88,0.00,,,-99.99,,2013-03-06 09:52:00,
2013-03-06 02:00:00,47.0,42.0,-100.00,South,169,21.0,-999.0,81,0.00,,,-99.99,,2013-03-06 10:00:00,
2013-03-06 02:22:00,47.0,42.0,-100.00,South,169,21.0,-999.0,81,0.00,,,-99.99,,2013-03-06 10:22:00,
2013-03-06 02:32:00,47.0,42.0,-100.00,South,169,21.0,-999.0,81,0.00,,,-99.99,,2013-03-06 10:32:00,
2013-03-06 02:42:00,47.0,42.0,-100.00,South,169,21.0,-999.0,81,0.00,,,-99.99,,2013-03-06 10:42:00,
2013-03-06 02:52:00,47.0,42.0,-100.00,South,169,21.0,-999.0,81,0.00,,,-99.99,,2013-03-06 10:52:00,
2013-03-06 03:00:00,46.0,41.0,-100.00,SSW,209,10.0,-999.0,80,0.00,,,-99.99,,2013-03-06 11:00:00,
2013-03-06 03:23:00,46.0,41.0,-100.00,SSW,209,10.0,-999.0,80,0.00,,,-99.99,,2013-03-06 11:23:00,
2013-03-06 03:32:00,46.0,41.0,-100.00,SSW,209,10.0,-999.0,80,0.00,,,-99.99,,2013-03-06 11:32:00,
2013-03-06 03:42:00,46.0,41.0,-100.00,SSW,209,10.0,-999.0,80,0.00,,,-99.99,,2013-03-06 11:42:00,
2013-03-06 03:52:00,46.0,41.0,-100.00,SSW,209,10.0,-999.0,80,0.00,,,-99.99,,2013-03-06 11:52:00,
2013-03-06 05:00:00,44.0,41.0,-100.00,NW,324,2.0,-999.0,89,0.00,,,-99.99,,2013-03-06 13:00:00,
2013-03-06 05:22:00,44.0,41.0,-100.00,NW,324,2.0,-999.0,89,0.00,,,-99.99,,2013-03-06 13:22:00,
2013-03-06 05:32:00,44.0,41.0,-100.00,NW,324,2.0,-999.0,89,0.00,,,-99.99,,2013-03-06 13:32:00,
2013-03-06 05:42:00,44.0,41.0,-100.00,NW,324,2.0,-999.0,89,0.00,,,-99.99,,2013-03-06 13:42:00,
2013-03-06 05:52:00,44.0,41.0,-100.00,NW,324,2.0,-999.0,89,0.00,,,-99.99,,2013-03-06 13:52:00,
2013-03-06 06:00:00,44.0,40.0,-100.00,South,181,5.0,-999.0,86,0.00,,,-99.99,,2013-03-06 14:00:00,
2013-03-06 06:22:00,44.0,40.0,-100.00,South,181,5.0,-999.0,86,0.00,,,-99.99,,2013-03-06 14:22:00,
2013-03-06 06:32:00,44.0,40.0,-100.00,South,181,5.0,-999.0,86,0.00,,,-99.99,,2013-03-06 14:32:00,
2013-03-06 06:42:00,44.0,40.0,-100.00,South,181,5.0,-999.0,86,0.00,,,-99.99,,2013-03-06 14:42:00,
2013-03-06 06:52:00,44.0,40.0,-100.00,South,181,5.0,-999.0,86,0.00,,,-99.99,,2013-03-06 14:52:00,
2013-03-06 07:00:00,43.0,40.0,-100.00,North,8,2.0,-999.0,89,0.00,,,-99.99,,2013-03-06 15:00:00,
2013-03-06 07:22:00,43.0,40.0,-100.00,North,8,2.0,-999.0,89,0.00,,,-99.99,,2013-03-06 15:22:00,
2013-03-06 07:32:00,43.0,40.0,-100.00,North,8,2.0,-999.0,89,0.00,,,-99.99,,2013-03-06 15:32:00,
2013-03-06 07:42:00,43.0,40.0,-100.00,North,8,2.0,-999.0,89,0.00,,,-99.99,,2013-03-06 15:42:00,
2013-03-06 07:52:00,43.0,40.0,-100.00,North,8,2.0,-999.0,89,0.00,,,-99.99,,2013-03-06 15:52:00,
2013-03-06 08:00:00,43.0,39.0,-100.00,South,174,6.0,-999.0,86,0.00,,,-99.99,,2013-03-06 16:00:00,
2013-03-06 08:22:00,43.0,39.0,-100.00,South,174,6.0,-999.0,86,0.00,,,-99.99,,2013-03-06 16:22:00,
2013-03-06 08:32:00,43.0,39.0,-100.00,South,174,6.0,-999.0,86,0.00,,,-99.99,,2013-03-06 16:32:00,
2013-03-06 08:42:00,43.0,39.0,-100.00,South,174,6.0,-999.0,86,0.00,,,-99.99,,2013-03-06 16:42:00,
2013-03-06 08:52:00,43.0,39.0,-100.00,South,174,6.0,-999.0,86,0.00,,,-99.99,,2013-03-06 16:52:00,
2013-03-06 09:00:00,46.0,41.0,-100.00,South,183,9.0,-999.0,81,0.00,,,-99.99,,2013-03-06 17:00:00,
2013-03-06 09:22:00,46.0,41.0,-100.00,South,183,9.0,-999.0,81,0.00,,,-99.99,,2013-03-06 17:22:00,
2013-03-06 09:32:00,46.0,41.0,-100.00,South,183,9.0,-999.0,81,0.00,,,-99.99,,2013-03-06 17:32:00,
2013-03-06 09:42:00,46.0,41.0,-100.00,South,183,9.0,-999.0,81,0.00,,,-99.99,,2013-03-06 17:42:00,
2013-03-06 09:52:00,46.0,41.0,-100.00,South,183,9.0,-999.0,81,0.00,,,-99.99,,2013-03-06 17:52:00,
2013-03-06 10:00:00,47.0,40.0,-100.00,South,176,9.0,-999.0,75,0.00,,,-99.99,,2013-03-06 18:00:00,
2013-03-06 10:29:00,47.0,40.0,-100.00,South,176,9.0,-999.0,75,0.00,,,-99.99,,2013-03-06 18:29:00,
2013-03-06 10:42:00,47.0,40.0,-100.00,South,176,9.0,-999.0,75,0.00,,,-99.99,,2013-03-06 18:42:00,
2013-03-06 10:52:00,47.0,40.0,-100.00,South,176,9.0,-999.0,75,0.00,,,-99.99,,2013-03-06 18:52:00,
2013-03-06 11:00:00,45.0,42.0,-100.00,South,188,2.0,-999.0,89,0.00,,,-99.99,,2013-03-06 19:00:00,
2013-03-06 11:22:00,45.0,42.0,-100.00,South,188,2.0,-999.0,89,0.00,,,-99.99,,2013-03-06 19:22:00,
2013-03-06 11:32:00,45.0,42.0,-100.00,South,188,2.0,-999.0,89,0.00,,,-99.99,,2013-03-06 19:32:00,
2013-03-06 11:43:00,45.0,42.0,-100.00,South,188,2.0,-999.0,89,0.00,,,-99.99,,2013-03-06 19:43:00,
2013-03-06 11:52:00,45.0,42.0,-100.00,South,188,2.0,-999.0,89,0.00,,,-99.99,,2013-03-06 19:52:00,
2013-03-06 12:00:00,48.0,38.0,-100.00,South,172,12.0,-999.0,68,0.00,,,-99.99,,2013-03-06 20:00:00,
2013-03-06 12:22:00,48.0,38.0,-100.00,South,172,12.0,-999.0,68,0.00,,,-99.99,,2013-03-06 20:22:00,
2013-03-06 12:33:00,48.0,38.0,-100.00,South,172,12.0,-999.0,68,0.00,,,-99.99,,2013-03-06 20:33:00,
2013-03-06 12:42:00,48.0,38.0,-100.00,South,172,12.0,-999.0,68,0.00,,,-99.99,,2013-03-06 20:42:00,
2013-03-06 12:52:00,48.0,38.0,-100.00,South,172,12.0,-999.0,68,0.00,,,-99.99,,2013-03-06 20:52:00,
2013-03-06 13:00:00,50.0,39.0,-100.00,WSW,253,4.0,-999.0,66,0.00,,,-99.99,,2013-03-06 21:00:00,
2013-03-06 13:22:00,50.0,39.0,-100.00,WSW,253,4.0,-999.0,66,0.00,,,-99.99,,2013-03-06 21:22:00,
2013-03-06 13:32:00,50.0,39.0,-100.00,WSW,253,4.0,-999.0,66,0.00,,,-99.99,,2013-03-06 21:32:00,
2013-03-06 13:42:00,50.0,39.0,-100.00,WSW,253,4.0,-999.0,66,0.00,,,-99.99,,2013-03-06 21:42:00,
2013-03-06 13:52:00,50.0,39.0,-100.00,WSW,253,4.0,-999.0,66,0.00,,,-99.99,,2013-03-06 21:52:00,
2013-03-06 14:00:00,49.0,37.0,-100.00,WSW,243,4.0,-999.0,64,0.00,,,-99.99,,2013-03-06 22:00:00,
2013-03-06 14:22:00,49.0,37.0,-100.00,WSW,243,4.0,-999.0,64,0.00,,,-99.99,,2013-03-06 22:22:00,
2013-03-06 14:32:00,49.0,37.0,-100.00,WSW,243,4.0,-999.0,64,0.00,,,-99.99,,2013-03-06 22:32:00,
2013-03-06 14:42:00,49.0,37.0,-100.00,WSW,243,4.0,-999.0,64,0.00,,,-99.99,,2013-03-06 22:42:00,
2013-03-06 14:52:00,49.0,37.0,-100.00,WSW,243,4.0,-999.0,64,0.00,,,-99.99,,2013-03-06 22:52:00,
2013-03-06 15:00:00,50.0,36.0,-100.00,South,191,9.0,-999.0,59,0.00,,,-99.99,,2013-03-06 23:00:00,
2013-03-06 15:22:00,50.0,36.0,-100.00,South,191,9.0,-999.0,59,0.00,,,-99.99,,2013-03-06 23:22:00,
2013-03-06 15:32:00,50.0,36.0,-100.00,South,191,9.0,-999.0,59,0.00,,,-99.99,,2013-03-06 23:32:00,
2013-03-06 15:42:00,50.0,36.0,-100.00,South,191,9.0,-999.0,59,0.00,,,-99.99,,2013-03-06 23:42:00,
2013-03-06 15:52:00,50.0,36.0,-100.00,South,191,9.0,-999.0,59,0.00,,,-99.99,,2013-03-06 23:52:00,
2013-03-06 16:00:00,49.0,38.0,-100.00,North,0,2.0,-999.0,63,0.00,,,-99.99,,2013-03-07 00:00:00,
2013-03-06 16:22:00,49.0,38.0,-100.00,North,0,2.0,-999.0,63,0.00,,,-99.99,,2013-03-07 00:22:00,
2013-03-06 16:32:00,49.0,38.0,-100.00,North,0,2.0,-999.0,63,0.00,,,-99.99,,2013-03-07 00:32:00,
2013-03-06 16:42:00,49.0,38.0,-100.00,North,0,2.0,-999.0,63,0.00,,,-99.99,,2013-03-07 00:42:00,
2013-03-06 16:52:00,49.0,38.0,-100.00,North,0,2.0,-999.0,63,0.00,,,-99.99,,2013-03-07 00:52:00,
2013-03-06 17:00:00,51.0,38.0,-100.00,SSW,208,9.0,-999.0,59,0.00,,,-99.99,,2013-03-07 01:00:00,
2013-03-06 17:22:00,51.0,38.0,-100.00,SSW,208,9.0,-999.0,59,0.00,,,-99.99,,2013-03-07 01:22:00,
2013-03-06 17:32:00,51.0,38.0,-100.00,SSW,208,9.0,-999.0,59,0.00,,,-99.99,,2013-03-07 01:32:00,
2013-03-06 17:42:00,51.0,38.0,-100.00,SSW,208,9.0,-999.0,59,0.00,,,-99.99,,2013-03-07 01:42:00,
2013-03-06 17:52:00,51.0,38.0,-100.00,SSW,208,9.0,-999.0,59,0.00,,,-99.99,,2013-03-07 01:52:00,
2013-03-06 23:00:00,37.0,35.0,-100.00,SE,128,4.0,-999.0,94,0.00,,,-99.99,,2013-03-07 07:00:00,
2013-03-06 23:22:00,37.0,35.0,-100.00,SE,128,4.0,-999.0,94,0.00,,,-99.99,,2013-03-07 07:22:00,
2013-03-06 23:32:00,37.0,35.0,-100.00,SE,128,4.0,-999.0,94,0.00,,,-99.99,,2013-03-07 07:32:00,
2013-03-06 23:43:00,37.0,35.0,-100.00,SE,128,4.0,-999.0,94,0.00,,,-99.99,,2013-03-07 07:43:00,
2013-03-06 23:52:00,37.0,35.0,-100.00,SE,128,4.0,-999.0,94,0.00,,,-99.99,,2013-03-07 07:52:00,